Time,TemperatureF,DewpointF,PressureIn,WindDirection,WindDirectionDegrees,WindSpeedMPH,WindSpeedGustMPH,Humidity,HourlyPrecipIn,Conditions,Clouds,dailyrainin,SoftwareType,DateUTC
2013-07-15 00:05:00,69.8,62.9,30.21,SE,135,0.0,0.0,79,0.00,,,0.00,WUHU21023XXSP,2013-07-15 05:05:00,
2013-07-15 00:12:00,69.6,62.8,30.21,SE,135,0.0,0.0,79,0.00,,,0.00,WUHU21023XXSP,2013-07-15 05:12:00,
2013-07-15 00:18:00,69.6,62.8,30.21,SE,135,0.0,0.0,79,0.00,,,0.00,WUHU21023XXSP,2013-07-15 05:18:00,
2013-07-15 00:25:00,69.4,62.6,30.21,SE,135,0.0,0.0,79,0.00,,,0.00,WUHU21023XXSP,2013-07-15 05:25:00,
2013-07-15 00:31:00,69.4,62.6,30.21,SE,135,0.0,0.0,79,0.00,,,0.00,WUHU21023XXSP,2013-07-15 05:31:00,
2013-07-15 00:38:00,69.1,62.3,30.21,SE,135,0.0,0.0,79,0.00,,,0.00,WUHU21023XXSP,2013-07-15 05:38:00,
2013-07-15 00:44:00,69.1,62.3,30.21,SE,135,0.0,0.0,79,0.00,,,0.00,WUHU21023XXSP,2013-07-15 05:44:00,
2013-07-15 00:50:00,69.1,62.3,30.21,SE,135,0.0,0.0,79,0.00,,,0.00,WUHU21023XXSP,2013-07-15 05:50:00,
2013-07-15 00:57:00,68.9,62.1,30.21,SE,135,0.0,0.0,79,0.00,,,0.00,WUHU21023XXSP,2013-07-15 05:57:00,
2013-07-15 01:07:00,68.9,62.1,30.21,SE,135,0.0,0.0,79,0.00,,,0.00,WUHU21023XXSP,2013-07-15 06:07:00,
2013-07-15 01:12:00,68.7,62.0,30.21,SE,135,0.0,0.0,79,0.00,,,0.00,WUHU21023XXSP,2013-07-15 06:12:00,
2013-07-15 01:18:00,68.5,62.2,30.21,SE,135,0.0,0.0,80,0.00,,,0.00,WUHU21023XXSP,2013-07-15 06:18:00,
2013-07-15 01:25:00,68.4,62.0,30.21,SE,135,0.0,0.0,80,0.00,,,0.00,WUHU21023XXSP,2013-07-15 06:25:00,
2013-07-15 01:31:00,68.2,61.9,30.21,SE,135,0.0,0.0,80,0.00,,,0.00,WUHU21023XXSP,2013-07-15 06:31:00,
2013-07-15 01:38:00,68.2,61.9,30.22,SE,135,0.0,0.0,80,0.00,,,0.00,WUHU21023XXSP,2013-07-15 06:38:00,
2013-07-15 01:44:00,67.8,61.5,30.21,SE,135,0.0,0.0,80,0.00,,,0.00,WUHU21023XXSP,2013-07-15 06:44:00,
2013-07-15 01:51:00,67.8,61.5,30.22,SE,135,0.0,0.0,80,0.00,,,0.00,WUHU21023XXSP,2013-07-15 06:51:00,
2013-07-15 01:57:00,67.8,61.5,30.21,SE,135,0.0,0.0,80,0.00,,,0.00,WUHU21023XXSP,2013-07-15 06:57:00,
2013-07-15 02:03:00,67.8,61.5,30.21,SE,135,0.0,0.0,80,0.00,,,0.00,WUHU21023XXSP,2013-07-15 07:03:00,
2013-07-15 02:10:00,67.8,61.8,30.21,SE,135,0.0,0.0,81,0.00,,,0.00,WUHU21023XXSP,2013-07-15 07:10:00,
2013-07-15 02:16:00,67.8,61.8,30.21,SE,135,0.0,0.0,81,0.00,,,0.00,WUHU21023XXSP,2013-07-15 07:16:00,
2013-07-15 02:23:00,67.8,61.8,30.22,SE,135,0.0,0.0,81,0.00,,,0.00,WUHU21023XXSP,2013-07-15 07:23:00,
2013-07-15 02:29:00,67.8,61.8,30.21,SE,135,0.0,0.0,81,0.00,,,0.00,WUHU21023XXSP,2013-07-15 07:29:00,
2013-07-15 02:36:00,67.8,61.8,30.21,SE,135,0.0,0.0,81,0.00,,,0.00,WUHU21023XXSP,2013-07-15 07:36:00,
2013-07-15 02:42:00,67.8,61.8,30.21,SE,135,0.0,0.0,81,0.00,,,0.00,WUHU21023XXSP,2013-07-15 07:42:00,
2013-07-15 02:48:00,67.8,61.8,30.22,SE,135,0.0,0.0,81,0.00,,,0.00,WUHU21023XXSP,2013-07-15 07:48:00,
2013-07-15 02:55:00,67.8,61.8,30.22,SE,135,0.0,0.0,81,0.00,,,0.00,WUHU21023XXSP,2013-07-15 07:55:00,
2013-07-15 03:01:00,67.6,61.7,30.22,SE,135,0.0,0.0,81,0.00,,,0.00,WUHU21023XXSP,2013-07-15 08:01:00,
2013-07-15 03:08:00,67.3,61.3,30.22,SE,135,0.0,0.0,81,0.00,,,0.00,WUHU21023XXSP,2013-07-15 08:08:00,
2013-07-15 03:14:00,67.3,61.3,30.23,SE,135,0.0,0.0,81,0.00,,,0.00,WUHU21023XXSP,2013-07-15 08:14:00,
2013-07-15 03:20:00,67.1,61.1,30.23,SE,135,0.0,0.0,81,0.00,,,0.00,WUHU21023XXSP,2013-07-15 08:20:00,
2013-07-15 03:27:00,67.1,61.1,30.23,SE,135,0.0,0.0,81,0.00,,,0.00,WUHU21023XXSP,2013-07-15 08:27:00,
2013-07-15 03:33:00,66.9,60.9,30.23,SE,135,0.0,0.0,81,0.00,,,0.00,WUHU21023XXSP,2013-07-15 08:33:00,
2013-07-15 03:40:00,66.9,60.9,30.23,SE,135,0.0,0.0,81,0.00,,,0.00,WUHU21023XXSP,2013-07-15 08:40:00,
2013-07-15 03:46:00,66.9,60.9,30.23,SE,135,0.0,0.0,81,0.00,,,0.00,WUHU21023XXSP,2013-07-15 08:46:00,
2013-07-15 03:53:00,66.9,60.9,30.23,SE,135,0.0,0.0,81,0.00,,,0.00,WUHU21023XXSP,2013-07-15 08:53:00,
2013-07-15 03:59:00,66.9,60.9,30.23,SE,135,0.0,0.0,81,0.00,,,0.00,WUHU21023XXSP,2013-07-15 08:59:00,
2013-07-15 04:05:00,66.7,60.8,30.23,SE,135,0.0,0.0,81,0.00,,,0.00,WUHU21023XXSP,2013-07-15 09:05:00,
2013-07-15 04:12:00,66.7,60.8,30.23,SE,135,0.0,0.0,81,0.00,,,0.00,WUHU21023XXSP,2013-07-15 09:12:00,
2013-07-15 04:18:00,66.7,61.1,30.23,SE,135,0.0,0.0,82,0.00,,,0.00,WUHU21023XXSP,2013-07-15 09:18:00,
2013-07-15 04:25:00,66.7,61.1,30.23,SE,135,0.0,0.0,82,0.00,,,0.00,WUHU21023XXSP,2013-07-15 09:25:00,
2013-07-15 04:31:00,66.7,61.1,30.23,SE,135,0.0,0.0,82,0.00,,,0.00,WUHU21023XXSP,2013-07-15 09:31:00,
2013-07-15 04:38:00,66.7,61.1,30.23,SE,135,0.0,0.0,82,0.00,,,0.00,WUHU21023XXSP,2013-07-15 09:38:00,
2013-07-15 04:44:00,66.7,61.1,30.23,SE,135,0.0,0.0,82,0.00,,,0.00,WUHU21023XXSP,2013-07-15 09:44:00,
2013-07-15 04:50:00,66.9,61.3,30.23,SE,135,0.0,0.0,82,0.00,,,0.00,WUHU21023XXSP,2013-07-15 09:50:00,
2013-07-15 04:57:00,66.9,61.3,30.23,SE,135,0.0,0.0,82,0.00,,,0.00,WUHU21023XXSP,2013-07-15 09:57:00,
2013-07-15 05:03:00,66.7,61.1,30.23,SE,135,0.0,0.0,82,0.00,,,0.00,WUHU21023XXSP,2013-07-15 10:03:00,
2013-07-15 05:10:00,66.7,61.1,30.23,SE,135,0.0,0.0,82,0.00,,,0.00,WUHU21023XXSP,2013-07-15 10:10:00,
2013-07-15 05:16:00,66.6,60.9,30.23,SE,135,0.0,0.0,82,0.00,,,0.00,WUHU21023XXSP,2013-07-15 10:16:00,
2013-07-15 05:23:00,66.4,60.7,30.23,SE,135,0.0,0.0,82,0.00,,,0.00,WUHU21023XXSP,2013-07-15 10:23:00,
2013-07-15 05:29:00,66.2,60.5,30.23,SE,135,0.0,0.0,82,0.00,,,0.00,WUHU21023XXSP,2013-07-15 10:29:00,
2013-07-15 05:35:00,66.0,60.4,30.24,SE,135,0.0,0.0,82,0.00,,,0.00,WUHU21023XXSP,2013-07-15 10:35:00,
2013-07-15 05:42:00,66.0,60.4,30.24,SE,135,0.0,0.0,82,0.00,,,0.00,WUHU21023XXSP,2013-07-15 10:42:00,
2013-07-15 05:48:00,66.2,60.5,30.23,SE,135,0.0,0.0,82,0.00,,,0.00,WUHU21023XXSP,2013-07-15 10:48:00,
2013-07-15 05:55:00,66.4,60.7,30.23,SE,135,0.0,0.0,82,0.00,,,0.00,WUHU21023XXSP,2013-07-15 10:55:00,
2013-07-15 06:01:00,66.4,60.7,30.24,SE,135,0.0,0.0,82,0.00,,,0.00,WUHU21023XXSP,2013-07-15 11:01:00,
2013-07-15 06:08:00,66.6,60.9,30.24,SE,135,0.0,0.0,82,0.00,,,0.00,WUHU21023XXSP,2013-07-15 11:08:00,
2013-07-15 06:14:00,66.7,61.4,30.24,SE,135,0.0,0.0,83,0.00,,,0.00,WUHU21023XXSP,2013-07-15 11:14:00,
2013-07-15 06:20:00,66.7,61.4,30.24,SE,135,0.0,0.0,83,0.00,,,0.00,WUHU21023XXSP,2013-07-15 11:20:00,
2013-07-15 06:27:00,66.9,61.6,30.24,SE,135,0.0,0.0,83,0.00,,,0.00,WUHU21023XXSP,2013-07-15 11:27:00,
2013-07-15 06:33:00,67.1,61.8,30.24,SE,135,0.0,0.0,83,0.00,,,0.00,WUHU21023XXSP,2013-07-15 11:33:00,
2013-07-15 06:40:00,67.3,62.0,30.24,SE,135,0.0,0.0,83,0.00,,,0.00,WUHU21023XXSP,2013-07-15 11:40:00,
2013-07-15 06:46:00,67.6,62.6,30.25,SE,135,0.0,0.0,84,0.00,,,0.00,WUHU21023XXSP,2013-07-15 11:46:00,
2013-07-15 06:53:00,67.8,62.8,30.24,SE,135,0.0,0.0,84,0.00,,,0.00,WUHU21023XXSP,2013-07-15 11:53:00,
2013-07-15 06:59:00,68.2,62.8,30.24,SE,135,0.0,0.0,83,0.00,,,0.00,WUHU21023XXSP,2013-07-15 11:59:00,
2013-07-15 07:05:00,68.4,63.0,30.24,SE,135,0.0,0.0,83,0.00,,,0.00,WUHU21023XXSP,2013-07-15 12:05:00,
2013-07-15 07:12:00,68.5,63.2,30.25,SE,135,0.0,0.0,83,0.00,,,0.00,WUHU21023XXSP,2013-07-15 12:12:00,
2013-07-15 07:18:00,69.1,64.0,30.25,SE,135,0.0,0.0,84,0.00,,,0.00,WUHU21023XXSP,2013-07-15 12:18:00,
2013-07-15 07:25:00,69.4,64.2,30.24,SE,135,0.0,0.0,84,0.00,,,0.00,WUHU21023XXSP,2013-07-15 12:25:00,
2013-07-15 07:31:00,70.0,64.9,30.24,SE,135,0.0,0.0,84,0.00,,,0.00,WUHU21023XXSP,2013-07-15 12:31:00,
2013-07-15 07:38:00,70.3,65.2,30.24,SE,135,0.0,0.0,84,0.00,,,0.00,WUHU21023XXSP,2013-07-15 12:38:00,
2013-07-15 07:44:00,70.9,65.4,30.24,ENE,67,0.0,0.0,83,0.00,,,0.00,WUHU21023XXSP,2013-07-15 12:44:00,
2013-07-15 07:50:00,71.6,66.1,30.24,ESE,112,0.0,0.0,83,0.00,,,0.00,WUHU21023XXSP,2013-07-15 12:50:00,
2013-07-15 07:57:00,72.3,66.7,30.24,ESE,112,0.0,0.0,83,0.00,,,0.00,WUHU21023XXSP,2013-07-15 12:57:00,
2013-07-15 08:02:00,73.0,67.6,30.24,ESE,112,0.0,0.0,83,0.00,,,0.00,WUHU21023XXSP,2013-07-15 13:02:00,
2013-07-15 08:07:00,73.6,67.8,30.23,East,90,0.0,0.0,82,0.00,,,0.00,WUHU21023XXSP,2013-07-15 13:07:00,
2013-07-15 08:15:00,74.3,68.3,30.24,SE,135,0.0,0.0,82,0.00,,,0.00,WUHU21023XXSP,2013-07-15 13:15:00,
2013-07-15 08:20:00,74.8,68.7,30.24,SE,135,0.0,0.0,81,0.00,,,0.00,WUHU21023XXSP,2013-07-15 13:20:00,
2013-07-15 08:26:00,75.4,69.2,30.24,ESE,112,0.0,30.0,81,0.00,,,0.00,WUHU21023XXSP,2013-07-15 13:26:00,
2013-07-15 08:31:00,75.7,69.5,30.24,ESE,112,33.0,33.0,81,0.00,,,0.00,WUHU21023XXSP,2013-07-15 13:31:00,
2013-07-15 08:36:00,76.3,69.7,30.24,SE,135,32.0,33.0,80,0.00,,,0.00,WUHU21023XXSP,2013-07-15 13:36:00,
2013-07-15 08:42:00,76.8,70.2,30.25,SE,135,34.0,34.0,80,0.00,,,0.00,WUHU21023XXSP,2013-07-15 13:42:00,
2013-07-15 08:47:00,77.2,70.1,30.25,SE,135,0.0,34.0,79,0.00,,,0.00,WUHU21023XXSP,2013-07-15 13:47:00,
2013-07-15 08:53:00,77.7,70.5,30.25,SE,135,34.0,34.0,79,0.00,,,0.00,WUHU21023XXSP,2013-07-15 13:53:00,
2013-07-15 09:00:00,78.1,70.6,30.25,SSE,157,36.0,36.0,78,0.00,,,0.00,WUHU21023XXSP,2013-07-15 14:00:00,
2013-07-15 09:07:00,78.6,71.2,30.25,SSE,157,22.0,36.0,78,0.00,,,0.00,WUHU21023XXSP,2013-07-15 14:07:00,
2013-07-15 09:12:00,79.0,71.5,30.25,SE,135,33.0,35.0,78,0.00,,,0.00,WUHU21023XXSP,2013-07-15 14:12:00,
2013-07-15 09:18:00,79.5,71.7,30.25,SSE,157,29.0,35.0,77,0.00,,,0.00,WUHU21023XXSP,2013-07-15 14:18:00,
2013-07-15 09:24:00,79.7,71.9,30.24,SE,135,39.0,39.0,77,0.00,,,0.00,WUHU21023XXSP,2013-07-15 14:24:00,
2013-07-15 09:29:00,80.2,72.0,30.25,SE,135,29.0,39.0,76,0.00,,,0.00,WUHU21023XXSP,2013-07-15 14:29:00,
2013-07-15 09:36:00,80.4,72.2,30.25,SE,135,31.0,36.0,76,0.00,,,0.00,WUHU21023XXSP,2013-07-15 14:36:00,
2013-07-15 09:43:00,81.1,72.9,30.24,SE,135,0.0,35.0,76,0.00,,,0.00,WUHU21023XXSP,2013-07-15 14:43:00,
2013-07-15 09:50:00,81.7,73.0,30.25,ESE,112,34.0,35.0,75,0.00,,,0.00,WUHU21023XXSP,2013-07-15 14:50:00,
2013-07-15 09:55:00,82.0,73.3,30.25,SSE,157,23.0,34.0,75,0.00,,,0.00,WUHU21023XXSP,2013-07-15 14:55:00,
2013-07-15 10:00:00,82.6,73.4,30.25,SE,135,30.0,40.0,74,0.00,,,0.00,WUHU21023XXSP,2013-07-15 15:00:00,
2013-07-15 10:05:00,82.9,73.4,30.24,SSE,157,29.0,40.0,73,0.00,,,0.00,WUHU21023XXSP,2013-07-15 15:05:00,
2013-07-15 10:11:00,83.5,73.5,30.25,ESE,112,24.0,30.0,72,0.00,,,0.00,WUHU21023XXSP,2013-07-15 15:11:00,
2013-07-15 10:17:00,84.0,74.0,30.25,SSE,157,31.0,34.0,72,0.00,,,0.00,WUHU21023XXSP,2013-07-15 15:17:00,
2013-07-15 10:23:00,84.4,73.6,30.25,SE,135,0.0,34.0,70,0.00,,,0.00,WUHU21023XXSP,2013-07-15 15:23:00,
2013-07-15 10:30:00,84.7,73.9,30.25,SE,135,23.0,28.0,70,0.00,,,0.00,WUHU21023XXSP,2013-07-15 15:30:00,
2013-07-15 10:35:00,84.9,73.7,30.24,SSE,157,33.0,33.0,69,0.00,,,0.00,WUHU21023XXSP,2013-07-15 15:35:00,
2013-07-15 10:40:00,85.3,74.0,30.24,SE,135,30.0,34.0,69,0.00,,,0.00,WUHU21023XXSP,2013-07-15 15:40:00,
2013-07-15 10:46:00,85.6,73.9,30.24,SSE,157,0.0,37.0,68,0.00,,,0.00,WUHU21023XXSP,2013-07-15 15:46:00,
2013-07-15 10:52:00,85.8,74.1,30.25,ENE,67,0.0,37.0,68,0.00,,,0.00,WUHU21023XXSP,2013-07-15 15:52:00,
2013-07-15 10:58:00,86.5,74.3,30.24,SSW,202,0.0,0.0,67,0.00,,,0.00,WUHU21023XXSP,2013-07-15 15:58:00,
2013-07-15 11:05:00,86.9,74.2,30.25,SE,135,0.0,0.0,66,0.00,,,0.00,WUHU21023XXSP,2013-07-15 16:05:00,
2013-07-15 11:11:00,87.1,74.3,30.25,SSW,202,0.0,0.0,66,0.00,,,0.00,WUHU21023XXSP,2013-07-15 16:11:00,
2013-07-15 11:20:00,86.9,73.7,30.24,SSW,202,0.0,0.0,65,0.00,,,0.00,WUHU21023XXSP,2013-07-15 16:20:00,
2013-07-15 11:26:00,86.7,73.5,30.24,ESE,112,0.0,0.0,65,0.00,,,0.00,WUHU21023XXSP,2013-07-15 16:26:00,
2013-07-15 11:33:00,87.1,73.9,30.24,SE,135,0.0,0.0,65,0.00,,,0.00,WUHU21023XXSP,2013-07-15 16:33:00,
2013-07-15 11:39:00,87.4,73.3,30.24,South,180,0.0,0.0,63,0.00,,,0.00,WUHU21023XXSP,2013-07-15 16:39:00,
2013-07-15 11:45:00,87.3,73.1,30.24,SW,225,0.0,16.0,63,0.00,,,0.00,WUHU21023XXSP,2013-07-15 16:45:00,
2013-07-15 11:50:00,87.1,73.4,30.24,ESE,112,23.0,23.0,64,0.00,,,0.00,WUHU21023XXSP,2013-07-15 16:50:00,
2013-07-15 11:57:00,87.1,73.4,30.24,SE,135,0.0,23.0,64,0.00,,,0.00,WUHU21023XXSP,2013-07-15 16:57:00,
2013-07-15 12:03:00,87.1,73.4,30.24,ESE,112,0.0,0.0,64,0.00,,,0.00,WUHU21023XXSP,2013-07-15 17:03:00,
2013-07-15 12:10:00,87.6,73.3,30.24,ESE,112,0.0,0.0,63,0.00,,,0.00,WUHU21023XXSP,2013-07-15 17:10:00,
2013-07-15 12:16:00,88.0,73.4,30.23,South,180,0.0,0.0,62,0.00,,,0.00,WUHU21023XXSP,2013-07-15 17:16:00,
2013-07-15 12:21:00,88.0,73.4,30.24,SE,135,0.0,0.0,62,0.00,,,0.00,WUHU21023XXSP,2013-07-15 17:21:00,
2013-07-15 12:27:00,87.8,73.2,30.23,SE,135,0.0,0.0,62,0.00,,,0.00,WUHU21023XXSP,2013-07-15 17:27:00,
2013-07-15 12:33:00,87.6,73.0,30.23,East,90,0.0,0.0,62,0.00,,,0.00,WUHU21023XXSP,2013-07-15 17:33:00,
2013-07-15 12:40:00,87.6,73.0,30.24,SE,135,0.0,0.0,62,0.00,,,0.00,WUHU21023XXSP,2013-07-15 17:40:00,
2013-07-15 12:48:00,88.0,73.4,30.23,SE,135,0.0,0.0,62,0.00,,,0.00,WUHU21023XXSP,2013-07-15 17:48:00,
2013-07-15 12:55:00,88.0,72.9,30.23,SE,135,0.0,0.0,61,0.00,,,0.00,WUHU21023XXSP,2013-07-15 17:55:00,
2013-07-15 13:01:00,88.0,73.4,30.23,ESE,112,0.0,0.0,62,0.00,,,0.00,WUHU21023XXSP,2013-07-15 18:01:00,
2013-07-15 13:07:00,88.3,73.7,30.23,NE,45,0.0,0.0,62,0.00,,,0.00,WUHU21023XXSP,2013-07-15 18:07:00,
2013-07-15 13:14:00,88.5,73.4,30.22,SSE,157,0.0,0.0,61,0.00,,,0.00,WUHU21023XXSP,2013-07-15 18:14:00,
2013-07-15 13:20:00,88.5,73.4,30.22,ESE,112,0.0,0.0,61,0.00,,,0.00,WUHU21023XXSP,2013-07-15 18:20:00,
2013-07-15 13:27:00,88.3,72.8,30.23,SSE,157,0.0,0.0,60,0.00,,,0.00,WUHU21023XXSP,2013-07-15 18:27:00,
2013-07-15 13:33:00,88.2,72.6,30.22,East,90,0.0,0.0,60,0.00,,,0.00,WUHU21023XXSP,2013-07-15 18:33:00,
2013-07-15 13:39:00,88.3,73.3,30.22,ESE,112,0.0,3.0,61,0.00,,,0.00,WUHU21023XXSP,2013-07-15 18:39:00,
2013-07-15 13:48:00,88.5,73.4,30.22,SSW,202,0.0,0.0,61,0.00,,,0.00,WUHU21023XXSP,2013-07-15 18:48:00,
2013-07-15 13:55:00,88.5,73.0,30.22,SE,135,0.0,0.0,60,0.00,,,0.00,WUHU21023XXSP,2013-07-15 18:55:00,
2013-07-15 14:01:00,88.7,73.6,30.22,SE,135,0.0,0.0,61,0.00,,,0.00,WUHU21023XXSP,2013-07-15 19:01:00,
2013-07-15 14:07:00,88.9,73.7,30.22,ESE,112,0.0,0.0,61,0.00,,,0.00,WUHU21023XXSP,2013-07-15 19:07:00,
2013-07-15 14:14:00,89.1,73.9,30.22,SSW,202,0.0,0.0,61,0.00,,,0.00,WUHU21023XXSP,2013-07-15 19:14:00,
2013-07-15 14:20:00,89.1,73.9,30.22,SE,135,0.0,0.0,61,0.00,,,0.00,WUHU21023XXSP,2013-07-15 19:20:00,
2013-07-15 14:27:00,89.2,74.5,30.22,SE,135,0.0,6.0,62,0.00,,,0.00,WUHU21023XXSP,2013-07-15 19:27:00,
2013-07-15 14:33:00,89.2,74.5,30.22,East,90,30.0,30.0,62,0.00,,,0.00,WUHU21023XXSP,2013-07-15 19:33:00,
2013-07-15 14:40:00,88.7,74.0,30.21,SE,135,0.0,30.0,62,0.00,,,0.00,WUHU21023XXSP,2013-07-15 19:40:00,
2013-07-15 14:45:00,88.7,74.0,30.21,SE,135,1.0,1.0,62,0.00,,,0.00,WUHU21023XXSP,2013-07-15 19:45:00,
2013-07-15 14:51:00,88.5,73.9,30.21,SE,135,26.0,32.0,62,0.00,,,0.00,WUHU21023XXSP,2013-07-15 19:51:00,
2013-07-15 14:56:00,88.2,74.0,30.21,SE,135,32.0,32.0,63,0.00,,,0.00,WUHU21023XXSP,2013-07-15 19:56:00,
2013-07-15 15:03:00,88.0,74.3,30.21,SE,135,37.0,38.0,64,0.00,,,0.00,WUHU21023XXSP,2013-07-15 20:03:00,
2013-07-15 15:10:00,87.6,73.9,30.21,ENE,67,20.0,38.0,64,0.00,,,0.00,WUHU21023XXSP,2013-07-15 20:10:00,
2013-07-15 15:16:00,87.1,73.4,30.21,SE,135,29.0,29.0,64,0.00,,,0.00,WUHU21023XXSP,2013-07-15 20:16:00,
2013-07-15 15:21:00,86.5,72.9,30.21,SE,135,30.0,30.0,64,0.00,,,0.00,WUHU21023XXSP,2013-07-15 20:21:00,
2013-07-15 15:27:00,86.5,73.4,30.21,SE,135,32.0,32.0,65,0.00,,,0.00,WUHU21023XXSP,2013-07-15 20:27:00,
2013-07-15 15:34:00,86.7,73.1,30.21,SE,135,33.0,33.0,64,0.00,,,0.00,WUHU21023XXSP,2013-07-15 20:34:00,
2013-07-15 15:40:00,87.3,73.6,30.21,East,90,3.0,34.0,64,0.00,,,0.00,WUHU21023XXSP,2013-07-15 20:40:00,
2013-07-15 15:46:00,87.6,73.9,30.21,SSE,157,4.0,46.0,64,0.00,,,0.00,WUHU21023XXSP,2013-07-15 20:46:00,
2013-07-15 15:52:00,87.4,73.8,30.21,South,180,32.0,46.0,64,0.00,,,0.00,WUHU21023XXSP,2013-07-15 20:52:00,
2013-07-15 15:58:00,87.1,73.0,30.21,ESE,112,6.0,37.0,63,0.00,,,0.00,WUHU21023XXSP,2013-07-15 20:58:00,
2013-07-15 16:04:00,87.6,73.9,30.21,SSE,157,24.0,34.0,64,0.00,,,0.00,WUHU21023XXSP,2013-07-15 21:04:00,
2013-07-15 16:11:00,88.3,74.6,30.21,SSE,157,6.0,24.0,64,0.00,,,0.00,WUHU21023XXSP,2013-07-15 21:11:00,
2013-07-15 16:18:00,88.7,74.5,30.21,East,90,6.0,6.0,63,0.00,,,0.00,WUHU21023XXSP,2013-07-15 21:18:00,
2013-07-15 16:24:00,88.7,73.6,30.21,SE,135,5.0,9.0,61,0.00,,,0.00,WUHU21023XXSP,2013-07-15 21:24:00,
2013-07-15 16:31:00,88.3,73.3,30.21,SSE,157,1.0,9.0,61,0.00,,,0.00,WUHU21023XXSP,2013-07-15 21:31:00,
2013-07-15 16:37:00,87.8,72.8,30.21,ESE,112,22.0,22.0,61,0.00,,,0.00,WUHU21023XXSP,2013-07-15 21:37:00,
2013-07-15 16:44:00,87.4,72.9,30.21,SE,135,0.0,22.0,62,0.00,,,0.00,WUHU21023XXSP,2013-07-15 21:44:00,
2013-07-15 16:50:00,87.1,73.0,30.21,SE,135,17.0,17.0,63,0.00,,,0.00,WUHU21023XXSP,2013-07-15 21:50:00,
2013-07-15 16:57:00,86.7,72.6,30.21,SSE,157,0.0,17.0,63,0.00,,,0.00,WUHU21023XXSP,2013-07-15 21:57:00,
2013-07-15 17:03:00,86.7,73.1,30.21,SE,135,7.0,7.0,64,0.00,,,0.00,WUHU21023XXSP,2013-07-15 22:03:00,
2013-07-15 17:09:00,86.7,73.5,30.21,ESE,112,1.0,7.0,65,0.00,,,0.00,WUHU21023XXSP,2013-07-15 22:09:00,
2013-07-15 17:15:00,86.5,72.9,30.20,SSE,157,2.0,3.0,64,0.00,,,0.00,WUHU21023XXSP,2013-07-15 22:15:00,
2013-07-15 17:22:00,85.8,72.7,30.21,SSE,157,38.0,38.0,65,0.00,,,0.00,WUHU21023XXSP,2013-07-15 22:22:00,
2013-07-15 17:27:00,85.8,72.7,30.20,ESE,112,24.0,42.0,65,0.00,,,0.00,WUHU21023XXSP,2013-07-15 22:27:00,
2013-07-15 17:33:00,85.5,72.8,30.20,SSE,157,30.0,42.0,66,0.00,,,0.00,WUHU21023XXSP,2013-07-15 22:33:00,
2013-07-15 17:38:00,85.3,72.6,30.20,SE,135,24.0,33.0,66,0.00,,,0.00,WUHU21023XXSP,2013-07-15 22:38:00,
2013-07-15 17:44:00,85.3,73.1,30.20,SE,135,5.0,33.0,67,0.00,,,0.00,WUHU21023XXSP,2013-07-15 22:44:00,
2013-07-15 17:51:00,85.1,72.9,30.20,SSE,157,3.0,30.0,67,0.00,,,0.00,WUHU21023XXSP,2013-07-15 22:51:00,
2013-07-15 17:58:00,84.9,72.7,30.20,SE,135,28.0,36.0,67,0.00,,,0.00,WUHU21023XXSP,2013-07-15 22:58:00,
2013-07-15 18:06:00,84.7,72.6,30.20,SE,135,32.0,32.0,67,0.00,,,0.00,WUHU21023XXSP,2013-07-15 23:06:00,
2013-07-15 18:11:00,84.7,72.6,30.20,South,180,37.0,37.0,67,0.00,,,0.00,WUHU21023XXSP,2013-07-15 23:11:00,
2013-07-15 18:18:00,84.6,72.4,30.20,SSE,157,0.0,40.0,67,0.00,,,0.00,WUHU21023XXSP,2013-07-15 23:18:00,
2013-07-15 18:23:00,84.4,72.7,30.20,SE,135,30.0,40.0,68,0.00,,,0.00,WUHU21023XXSP,2013-07-15 23:23:00,
2013-07-15 18:29:00,84.4,72.7,30.21,SSE,157,39.0,39.0,68,0.00,,,0.00,WUHU21023XXSP,2013-07-15 23:29:00,
2013-07-15 18:40:00,84.6,72.8,30.20,ESE,112,42.0,42.0,68,0.00,,,0.00,WUHU21023XXSP,2013-07-15 23:40:00,
2013-07-15 18:47:00,84.7,73.0,30.21,SSE,157,0.0,43.0,68,0.00,,,0.00,WUHU21023XXSP,2013-07-15 23:47:00,
2013-07-15 18:57:00,84.6,72.8,30.20,SSE,157,24.0,40.0,68,0.00,,,0.00,WUHU21023XXSP,2013-07-15 23:57:00,
2013-07-15 19:05:00,84.7,73.0,30.20,East,90,36.0,40.0,68,0.00,,,0.00,WUHU21023XXSP,2013-07-16 00:05:00,
2013-07-15 19:15:00,84.6,72.8,30.20,SE,135,0.0,35.0,68,0.00,,,0.00,WUHU21023XXSP,2013-07-16 00:15:00,
2013-07-15 19:20:00,84.4,72.7,30.20,SSE,157,34.0,35.0,68,0.00,,,0.00,WUHU21023XXSP,2013-07-16 00:20:00,
2013-07-15 19:26:00,84.4,72.7,30.20,ESE,112,0.0,45.0,68,0.00,,,0.00,WUHU21023XXSP,2013-07-16 00:26:00,
2013-07-15 19:33:00,84.0,72.3,30.21,East,90,33.0,45.0,68,0.00,,,0.00,WUHU21023XXSP,2013-07-16 00:33:00,
2013-07-15 19:40:00,83.8,72.6,30.21,ESE,112,29.0,35.0,69,0.00,,,0.00,WUHU21023XXSP,2013-07-16 00:40:00,
2013-07-15 19:45:00,83.5,72.2,30.21,NE,45,34.0,34.0,69,0.00,,,0.00,WUHU21023XXSP,2013-07-16 00:45:00,
2013-07-15 19:51:00,83.3,72.1,30.21,ENE,67,29.0,34.0,69,0.00,,,0.00,WUHU21023XXSP,2013-07-16 00:51:00,
2013-07-15 19:56:00,82.9,71.7,30.21,SE,135,22.0,29.0,69,0.00,,,0.00,WUHU21023XXSP,2013-07-16 00:56:00,
2013-07-15 20:04:00,82.6,71.8,30.21,South,180,27.0,31.0,70,0.00,,,0.00,WUHU21023XXSP,2013-07-16 01:04:00,
2013-07-15 20:11:00,82.2,71.4,30.21,SE,135,34.0,34.0,70,0.00,,,0.00,WUHU21023XXSP,2013-07-16 01:11:00,
2013-07-15 20:16:00,82.0,71.3,30.20,SE,135,0.0,34.0,70,0.00,,,0.00,WUHU21023XXSP,2013-07-16 01:16:00,
2013-07-15 20:23:00,81.7,71.0,30.20,SE,135,30.0,31.0,70,0.00,,,0.00,WUHU21023XXSP,2013-07-16 01:23:00,
2013-07-15 20:30:00,81.3,71.0,30.21,South,180,31.0,31.0,71,0.00,,,0.00,WUHU21023XXSP,2013-07-16 01:30:00,
2013-07-15 20:35:00,81.0,70.7,30.21,South,180,0.0,31.0,71,0.00,,,0.00,WUHU21023XXSP,2013-07-16 01:35:00,
2013-07-15 20:41:00,80.8,70.9,30.21,SSE,157,0.0,0.0,72,0.00,,,0.00,WUHU21023XXSP,2013-07-16 01:41:00,
2013-07-15 20:48:00,80.4,71.0,30.21,SSE,157,0.0,0.0,73,0.00,,,0.00,WUHU21023XXSP,2013-07-16 01:48:00,
2013-07-15 20:53:00,80.2,70.4,30.21,SSE,157,0.0,0.0,72,0.00,,,0.00,WUHU21023XXSP,2013-07-16 01:53:00,
2013-07-15 21:00:00,79.9,70.4,30.21,East,90,0.0,0.0,73,0.00,,,0.00,WUHU21023XXSP,2013-07-16 02:00:00,
2013-07-15 21:05:00,79.5,70.1,30.21,ESE,112,0.0,17.0,73,0.00,,,0.00,WUHU21023XXSP,2013-07-16 02:05:00,
2013-07-15 21:11:00,79.3,70.3,30.21,ESE,112,0.0,17.0,74,0.00,,,0.00,WUHU21023XXSP,2013-07-16 02:11:00,
2013-07-15 21:18:00,79.0,69.9,30.22,ESE,112,0.0,22.0,74,0.00,,,0.00,WUHU21023XXSP,2013-07-16 02:18:00,
2013-07-15 21:24:00,78.6,70.0,30.22,East,90,26.0,26.0,75,0.00,,,0.00,WUHU21023XXSP,2013-07-16 02:24:00,
2013-07-15 21:31:00,78.6,70.0,30.22,East,90,0.0,26.0,75,0.00,,,0.00,WUHU21023XXSP,2013-07-16 02:31:00,
2013-07-15 21:37:00,78.3,69.6,30.22,East,90,0.0,0.0,75,0.00,,,0.00,WUHU21023XXSP,2013-07-16 02:37:00,
2013-07-15 21:44:00,77.9,69.3,30.23,East,90,0.0,20.0,75,0.00,,,0.00,WUHU21023XXSP,2013-07-16 02:44:00,
2013-07-15 21:51:00,77.7,69.5,30.23,ESE,112,0.0,33.0,76,0.00,,,0.00,WUHU21023XXSP,2013-07-16 02:51:00,
2013-07-15 21:57:00,77.5,69.7,30.23,SE,135,0.0,33.0,77,0.00,,,0.00,WUHU21023XXSP,2013-07-16 02:57:00,
2013-07-15 22:04:00,77.2,69.4,30.23,ESE,112,0.0,0.0,77,0.00,,,0.00,WUHU21023XXSP,2013-07-16 03:04:00,
2013-07-15 22:10:00,76.8,69.0,30.24,ESE,112,0.0,15.0,77,0.00,,,0.00,WUHU21023XXSP,2013-07-16 03:10:00,
2013-07-15 22:16:00,76.8,69.0,30.24,ESE,112,0.0,0.0,77,0.00,,,0.00,WUHU21023XXSP,2013-07-16 03:16:00,
2013-07-15 22:23:00,76.6,68.9,30.23,ESE,112,0.0,0.0,77,0.00,,,0.00,WUHU21023XXSP,2013-07-16 03:23:00,
2013-07-15 22:29:00,76.3,68.5,30.23,ESE,112,0.0,15.0,77,0.00,,,0.00,WUHU21023XXSP,2013-07-16 03:29:00,
2013-07-15 22:36:00,76.3,68.9,30.24,SE,135,0.0,15.0,78,0.00,,,0.00,WUHU21023XXSP,2013-07-16 03:36:00,
2013-07-15 22:42:00,76.1,68.8,30.24,ESE,112,0.0,0.0,78,0.00,,,0.00,WUHU21023XXSP,2013-07-16 03:42:00,
2013-07-15 22:49:00,76.1,68.8,30.24,ESE,112,0.0,0.0,78,0.00,,,0.00,WUHU21023XXSP,2013-07-16 03:49:00,
2013-07-15 22:55:00,75.9,68.6,30.24,ESE,112,0.0,0.0,78,0.00,,,0.00,WUHU21023XXSP,2013-07-16 03:55:00,
2013-07-15 23:01:00,75.9,68.6,30.24,ESE,112,0.0,0.0,78,0.00,,,0.00,WUHU21023XXSP,2013-07-16 04:01:00,
2013-07-15 23:04:00,75.7,68.4,30.24,ESE,112,0.0,0.0,78,0.00,,,0.00,WUHU21023XXSP,2013-07-16 04:04:00,
2013-07-15 23:06:00,75.7,68.4,30.24,ESE,112,0.0,0.0,78,0.00,,,0.00,WUHU21023XXSP,2013-07-16 04:06:00,
2013-07-15 23:12:00,75.6,68.3,30.24,ESE,112,0.0,0.0,78,0.00,,,0.00,WUHU21023XXSP,2013-07-16 04:12:00,
2013-07-15 23:14:00,75.4,68.1,30.24,ESE,112,0.0,0.0,78,0.00,,,0.00,WUHU21023XXSP,2013-07-16 04:14:00,
2013-07-15 23:21:00,75.4,68.1,30.24,SE,135,0.0,0.0,78,0.00,,,0.00,WUHU21023XXSP,2013-07-16 04:21:00,
2013-07-15 23:27:00,75.2,67.9,30.23,SE,135,0.0,0.0,78,0.00,,,0.00,WUHU21023XXSP,2013-07-16 04:27:00,
2013-07-15 23:34:00,75.0,67.7,30.23,SE,135,0.0,0.0,78,0.00,,,0.00,WUHU21023XXSP,2013-07-16 04:34:00,
2013-07-15 23:40:00,75.0,68.1,30.23,ESE,112,0.0,0.0,79,0.00,,,0.00,WUHU21023XXSP,2013-07-16 04:40:00,
2013-07-15 23:46:00,74.8,67.6,30.23,ESE,112,0.0,0.0,78,0.00,,,0.00,WUHU21023XXSP,2013-07-16 04:46:00,
2013-07-15 23:53:00,74.5,67.6,30.23,ESE,112,0.0,0.0,79,0.00,,,0.00,WUHU21023XXSP,2013-07-16 04:53:00,
2013-07-15 23:59:00,74.5,67.6,30.24,ESE,112,0.0,0.0,79,0.00,,,0.00,WUHU21023XXSP,2013-07-16 04:59:00,